Weather in Novyy Sad

Russia / Republic of Adygea     44°54′20″N   38°54′25″E
temp.,
°C
wind,
m/s
gust,
m/s
humid.,
%
clouds,
%
prec.,
mm/h
press.,
hPa
HPBL,
m
9 may, sun
sun900:00+17wsw3752100 0.0 1009286
03:00+14sw3691100 1.1 1010302
06:00+11wnw81294100 2.6 1012755
09:00+9nw71194100 6.8 1014873
12:00+10nw6987100 2.6 10171078
15:00+10nw5883100 4.3 1020977
18:00+12wnw37705 0.4 10221326
21:00+8wsw35755 0.4 1023108
10 may, mon
mon1000:00+7wsw4876100 0.0 1024209
03:00+7wsw3685100 0.3 1024117
06:00+6wsw36903 0.3 1024149
09:00+12nw465797 0.4 10231376
12:00+13wnw5751100 0.5 10231849
15:00+13wnw6850100 0.7 10221921
18:00+11nw5871100 0.6 10221075
21:00+9wsw4974100 0.7 1021760
11 may, tue
tue1100:00+10wsw71268100 0.3 10181170
03:00+9sw81579100 1.3 10161406
06:00+9sw71487100 3.1 10151322
09:00+9wsw81590100 8.1 10151324
12:00+10wsw71590100 3.4 10161438
15:00+9sw61391100 5.8 10171419
18:00+10ssw61281100 0.2 1017793
21:00+10s4977100 0.3 1018389
12 may, wed
wed1200:00+9se3781100 0.1 1017217
03:00+9ese478999 0.1 1017235
06:00+8ese4791100 0.0 1017295
09:00+12ese347895 0.0 1017404
12:00+16ese345959 0.0 1016832
15:00+19e45550 0.0 1015876
18:00+19ene36675 0.0 1014537
21:00+14ene35840 0.0 101482
13 may, thu
thu1300:00+12e24910 0.0 101390
03:00+11ese23920 0.0 101262
06:00+11ese248950 0.0 101286
09:00+18e3567100 0.0 1012291
12:00+23e4757100 0.0 1012550
15:00+26e5855100 0.0 1011697
18:00+24e41073100 0.0 1011462
21:00+19e411875 0.0 1011228